Weather History for Fort Leonard Wood, MO

Change the Weather History Date:

Thursday, May 23, 2013

  Actual Average Record
Temperature  
Mean Temperature 62 °F -  
Max Temperature 69 °F 75 °F 87 °F (1998)
Min Temperature 54 °F 57 °F 46 °F (1997)
Degree Days  
Heating Degree Days 4    
Growing Degree Days 12 (Base 50)    
Moisture  
Dew Point 55 °F    
Average Humidity 79    
Maximum Humidity 99    
Minimum Humidity 60    
Precipitation  
Precipitation 0.00 in - - ()
Sea Level Pressure  
Sea Level Pressure 30.08 in    
Wind  
Wind Speed 7 mph (NNW)    
Max Wind Speed 15 mph    
Max Gust Speed 20 mph    
Visibility 10 miles    
Events      
Averages and records for this station are not official NWS values.
T = Trace of Precipitation, MM = Missing Value Source: NWS Daily Summary

Daily Weather History Graph

Daily Weather History Graph

Search for Another Location

Airport:

Trip Planner

Search our weather history database for the weather conditions in past years. The results will help you decide how hot, cold, wet, or windy it might be!

Date:

Astronomy

May. 23, 2013 Rise Set
Actual Time 5:52 AM CDT 8:18 PM CDT
Civil Twilight 5:22 AM CDT 8:48 PM CDT
Nautical Twilight 4:45 AM CDT 9:25 PM CDT
Astronomical Twilight 4:04 AM CDT 10:06 PM CDT
Moon 6:52 PM CDT (5/23) 4:36 AM CDT (5/23)
Length of Visible Light 15h 25m
Length of Day
14h 25m
Waxing Gibbous, 97% of the Moon is Illuminated
May 23
Waxing Gibbous
May 24
Full
May 31
Last Quarter
Jun 8
New
Jun 16
First Quarter

Hourly Weather History & Observations

Time (CDT) Temp. Dew Point Humidity Pressure Visibility Wind Dir Wind Speed Gust Speed Precip Events Conditions
12:58 AM 59.9 °F 55.2 °F 84% 29.93 in 10.0 mi WSW 3.5 mph - N/A   Overcast
1:58 AM 56.7 °F 55.0 °F 94% 29.92 in 10.0 mi SW 2.3 mph - N/A   Partly Cloudy
2:58 AM 55.9 °F 54.7 °F 96% 29.92 in 10.0 mi SW 2.3 mph - N/A   Clear
3:58 AM 55.4 °F 54.3 °F 96% 29.94 in 10.0 mi West 3.5 mph - N/A   Clear
4:58 AM 54.5 °F 54.1 °F 99% 29.96 in 10.0 mi West 4.6 mph - N/A   Clear
5:58 AM 54.3 °F 53.6 °F 97% 29.99 in 10.0 mi West 4.6 mph - N/A   Clear
6:58 AM 55.9 °F 54.0 °F 93% 30.02 in 10.0 mi West 6.9 mph - N/A   Clear
7:58 AM 58.3 °F 53.8 °F 85% 30.04 in 10.0 mi NW 8.1 mph - N/A   Clear
8:58 AM 61.0 °F 53.1 °F 75% 30.05 in 10.0 mi NNW 12.7 mph 18.4 mph N/A   Partly Cloudy
9:58 AM 62.6 °F 51.6 °F 67% 30.06 in 10.0 mi NW 12.7 mph 17.3 mph N/A   Clear
10:58 AM 63.9 °F 52.5 °F 67% 30.12 in 10.0 mi Variable 4.6 mph - N/A   Mostly Cloudy
11:58 AM 66.4 °F 54.0 °F 64% 30.11 in 10.0 mi NW 9.2 mph - N/A   Scattered Clouds
12:58 PM 67.3 °F 55.2 °F 65% 30.11 in 10.0 mi NNW 12.7 mph 19.6 mph N/A   Overcast
1:58 PM 67.6 °F 55.9 °F 66% 30.13 in 10.0 mi NW 11.5 mph - N/A   Mostly Cloudy
2:58 PM 68.4 °F 55.6 °F 64% 30.14 in 10.0 mi WNW 9.2 mph - N/A   Partly Cloudy
3:58 PM 67.8 °F 56.5 °F 67% 30.13 in 10.0 mi NNW 15.0 mph - N/A   Scattered Clouds
4:23 PM 68.0 °F 55.4 °F 64% 30.14 in 10.0 mi North 13.8 mph - N/A   Mostly Cloudy
4:38 PM 69.8 °F 55.4 °F 60% 30.14 in 10.0 mi North 10.4 mph - N/A   Mostly Cloudy
4:58 PM 68.2 °F 55.6 °F 64% 30.14 in 10.0 mi North 12.7 mph - N/A   Mostly Cloudy
5:58 PM 66.6 °F 55.4 °F 67% 30.14 in 10.0 mi North 8.1 mph - N/A   Overcast
6:58 PM 64.8 °F 55.0 °F 71% 30.15 in 10.0 mi North 10.4 mph - N/A   Mostly Cloudy
7:58 PM 63.7 °F 55.6 °F 75% 30.14 in 10.0 mi North 8.1 mph - N/A   Scattered Clouds
8:58 PM 60.3 °F 55.4 °F 84% 30.17 in 10.0 mi NNE 8.1 mph - N/A   Partly Cloudy
9:58 PM 57.6 °F 55.0 °F 91% 30.19 in 10.0 mi NNE 3.5 mph - N/A   Clear
10:58 PM 56.1 °F 55.0 °F 96% 30.20 in 10.0 mi NNE 6.9 mph - N/A   Clear
11:58 PM 55.4 °F 54.5 °F 97% 30.21 in 10.0 mi NNE 5.8 mph - N/A   Clear